User: anonymous   Login
Location: Melque
(41.0517°N, 4.4694°W)
Time: 02:42:56
(UTC+00:00)
Language:

Cosmos 2237 - Orbit

View from above orbital plane
View from above orbital plane
View from above satellite
View from above satellite

Ground track
Ground track

The orbit is defined by the following mean orbital elements,

1 22565U          26040.79438156 +.00000000 +00000-0 -43187-4 0 00006
2 22565  70.7627 222.4435 0003140 105.6261 254.5205 14.12376400    03
Epoch (UTC): 09 February 2026 19:03:54
Eccentricity: 0.0003140
inclination: 70.7627°
perigee height: 849 km
apogee height: 854 km
right ascension of ascending node: 222.4435°
argument of perigee: 105.6261°
revolutions per day: 14.12376400
mean anomaly at epoch: 254.5205°

The dashed part of the orbit path shows where the satellite is in the earth's shadow,  

DLR